Regional Weather Roundup
Issued by NWS

Home | Current Version | Previous Version | Text Only | Print | Product List | Glossary On
Versions: 1 2 3 4 5 6 7 8 9 10 11 12 13 14 15 16 17 18 19 20 21 22 23 24 25 26 27 28 29 30 31 32 33 34 35 36 37 38 39 40 41 42 43 44 45 46 47 48 49 50
000
ASUS44 KBMX 281010
RWRAL

ALABAMA REGIONAL WEATHER ROUNDUP
NATIONAL WEATHER SERVICE BIRMINGHAM AL
500 AM CDT THU MAY 28 2015

NOTE: "FAIR" INDICATES FEW OR NO CLOUDS BELOW 12,000 FEET
WITH NO SIGNIFICANT WEATHER AND/OR OBSTRUCTIONS TO VISIBILITY.

THE REMARK "TC" DENOTES TEMPERATURE IN DEGREES CELSIUS.

ALZ001>011-014-016>018-020-281100-
NORTH ALABAMA

CITY           SKY/WX    TMP DP  RH WIND       PRES   REMARKS
MUSCLE SHOALS  MOCLDY    65  63  93 CALM      30.17R
HUNTSVILLE     LGT RAIN  68  67  96 CALM      30.16R
DECATUR        CLOUDY    65  65 100 CALM      30.16R
HALEYVILLE     MOCLDY    64  64 100 CALM      30.18S
GADSDEN        CLOUDY   N/A N/A N/A CALM      30.14R
$$

ALZ012-013-022-023-030>036-040>044-281100-
WEST CENTRAL ALABAMA

CITY           SKY/WX    TMP DP  RH WIND       PRES   REMARKS
TUSCALOOSA     CLOUDY    67  66  97 CALM      30.15R
$$

ALZ015-024>027-033>036-040>044-281100-
CENTRAL ALABAMA

CITY           SKY/WX    TMP DP  RH WIND       PRES   REMARKS
BIRMINGHAM     CLOUDY    67  65  93 CALM      30.17R
MONTGOMERY     CLOUDY    70  67  90 E5        30.14R
SHELBY CO ARPT CLOUDY    67  66  97 CALM      30.15R
MAXWELL AFB    CLOUDY    70  68  94 NE3       30.13R
GREENVILLE     FAIR      67  64  90 CALM      30.13R
$$

ALZ019-021-028-029-037-038-045>048-281100-
EAST CENTRAL ALABAMA

CITY           SKY/WX    TMP DP  RH WIND       PRES   REMARKS
ANNISTON       MOCLDY    67  64  90 NE3       30.15R
ALEXANDER CITY CLOUDY    67  64  90 CALM      30.16S
AUBURN         PTCLDY    64  61  88 E6        30.16S
$$

ALZ051>064-281100-
SOUTHWEST ALABAMA

CITY           SKY/WX    TMP DP  RH WIND       PRES   REMARKS
MOBILE         MOCLDY    71  70  96 N3        30.11R
BROOKLEY FIELD MOCLDY    74  72  93 CALM      30.11R
EVERGREEN      MOCLDY    67  66  97 CALM      30.13R FOG
$$

ALZ049-050-065>069-281100-
SOUTHEAST ALABAMA

CITY           SKY/WX    TMP DP  RH WIND       PRES   REMARKS
DOTHAN         PTCLDY    69  67  93 E5        30.15S
OZARK          CLEAR     66  66  99 NE3       30.11S
TROY           PTCLDY    68  66  93 NE3       30.13S
EUFAULA        FAIR      69  67  93 CALM      30.13S FOG
$$



USA.gov is the U.S. government's official web portal to all federal, state and local government web resources and services.